Miscellaneous Local Product
Issued by NWS North Platte, NE

Home | Current Version | Previous Version | Text Only | Print | Product List | Glossary On
Versions: 1 2 3 4 5 6 7 8 9 10 11 12 13 14 15 16 17 18 19 20 21 22 23 24 25 26 27 28 29 30 31 32 33 34 35 36 37 38 39 40 41 42 43 44 45 46 47 48 49 50
000
AXUS43 KLBF 170710
MISLBF


WESTERN AND NORTH CENTRAL NEBRASKA HOURLY WEATHER ROUNDUP
NATIONAL WEATHER SERVICE NORTH PLATTE NE
100 AM CST WED JAN 17 2018

NOTE: "FAIR" INDICATES FEW OR NO CLOUDS BELOW 12,000 FEET WITH NO
SIGNIFICANT WEATHER AND/OR OBSTRUCTIONS TO VISIBILITY.

NOTE: STATIONS NOT REPORTING VARIABLES SUCH AS SKY/WEATHER OR
PRESSURE ARE PROVIDED BY RAWS AND APRS NETWORKS AND ARE NOT UNDER
NATIONAL WEATHER SERVICE QUALITY CONTROL.

...OBSERVATIONS IN AND NEAR THE EASTERN PANHANDLE OF NEBRASKA...

CITY           SKY/WX    TMP DP  RH WIND       PRES   REMARKS
PINE RIDGE     CLEAR     18   6  59 SW7       30.23F WCI   9
GORDON         FAIR      16   4  58 W12G17    30.23F WCI   3
CHADRON        CLEAR      8   2  76 SW6       30.23F WCI  -2
ALLIANCE       CLEAR      4   0  83 S7        30.24F WCI  -8
SIDNEY         CLEAR      6   0  76 W7        30.25F WCI  -6
CRESCENT LAKE    N/A     11   3  68 S6          N/A  WCI   2
$$

...OBSERVATIONS IN NORTHERN NEBRASKA AND FAR SOUTHERN SOUTH DAKOTA...

CITY           SKY/WX    TMP DP  RH WIND       PRES   REMARKS
WINNER         FAIR      17   5  59 SW17      30.29F WCI   1
VALENTINE      CLEAR     10   2  69 SW9       30.28F WCI  -3
AINSWORTH      CLEAR     11   1  64 SW17      30.31F WCI  -6
O`NEILL        CLEAR      9   1  71 S12       30.40F WCI  -6
THEDFORD       CLEAR     11   2  64 SW13      30.34F WCI  -3
BROKEN BOW     CLEAR      4  -4  69 SW10      30.41F WCI -11
ORD            CLEAR      6   0  76 S5        30.45F WCI  -3
ALBION         CLEAR      5  -1  76 S3        30.49F
VALENTINE NWR    N/A     10  -1  61 S8          N/A  WCI  -2
HALSEY           N/A      9  -3  58 S8G16       N/A  WCI  -3
BUTTE            N/A      8   1  73 SW9G16      N/A  WCI  -5
CHAMBERS         N/A      7  -4  59 S5          N/A  WCI  -2
EWING            N/A      6   1  80 S7          N/A  WCI  -6
$$

...OBSERVATIONS IN SOUTHWEST NEBRASKA AND FAR NORTHEAST COLORADO...

CITY           SKY/WX    TMP DP  RH WIND       PRES   REMARKS
WRAY           FAIR      18   1  49 SW10      30.31F WCI   6
HOLYOKE        FAIR       5   0  78 S5        30.30F WCI  -4
IMPERIAL       CLEAR      5  -1  76 S6        30.34F WCI  -6
OGALLALA       CLEAR     12   2  63 SW6       30.34F WCI   3
NORTH PLATTE   CLEAR     11  -2  56 S9        30.39F WCI  -2
MCCOOK         CLEAR      5  -2  72 SE5       30.43F WCI  -4
LEXINGTON      CLEAR     11   2  67 S8        30.45F WCI  -1
STAPLETON        N/A      5  -1  77 CALM        N/A
GOTHENBURG       N/A     12   2  64 S5          N/A  WCI   4
CALLAWAY         N/A      7   1  76 S18         N/A  WCI -12
$$

...OBSERVATIONS IN CENTRAL LINCOLN COUNTY AREA...

CITY           SKY/WX    TMP DP  RH WIND       PRES   REMARKS
N.P. AIRPORT   CLEAR     11  -2  56 S9        30.39F WCI  -2
N.P. DOWNTOWN    N/A     10   1  67 CALM        N/A
N.P. SOUTHEAST   N/A      9  -1  62 CALM        N/A
N.P. HILLCREST   N/A      9   1  68 E3          N/A
$$

...SOME OBSERVATIONS FROM AROUND THE REGION...

CITY           SKY/WX    TMP DP  RH WIND       PRES   REMARKS
DENVER         CLEAR     18   7  62 SW6       30.21F WCI  10
BERTHOUD PASS  FAIR      12   1  62 NW24G30   30.28F WCI  -8
GRAND JUNCTION CLEAR     22  13  68 E5        30.38S WCI  16
LARAMIE        CLEAR      9  -5  53 N5        30.21S WCI   1
CHEYENNE       CLEAR     14   2  58 W7        30.18F WCI   4
CASPER         CLEAR     29   5  36 SW22      30.21R WCI  15
BISMARCK       CLEAR      8  -1  66 SW7       30.22F WCI  -3
RAPID CITY     PTCLDY    13   4  67 E3        30.16F
PIERRE         CLEAR      4   1  88 E3        30.28F
SIOUX FALLS    CLEAR      5  -1  76 S12       30.45F WCI -11
OMAHA          CLOUDY     1  -3  83 SE8       30.62F WCI -13
GRAND ISLAND   CLOUDY     6   0  76 S9        30.51F WCI  -8
SCOTTSBLUFF    CLEAR      6   2  83 CALM      30.24F
KANSAS CITY    CLOUDY     0  -4  83 SW7       30.67F WCI -13
HILL CITY      CLOUDY     7  -1  70 SW9       30.52F WCI  -7
WICHITA        CLOUDY     2  -2  83 S6        30.66F WCI  -9
DODGE CITY     CLOUDY     3  -6  66 S8        30.53F WCI -10
OKLAHOMA CITY  CLOUDY     9  -1  64 CALM      30.69F
DALLAS         CLOUDY    16   2  54 NE6       30.73F WCI   7
AMARILLO       CLOUDY     9  -5  53 S9        30.49F WCI  -4
$$




USA.gov is the U.S. government's official web portal to all federal, state and local government web resources and services.